Eau Claire, WI

11:04 AM CDT on October 23, 2017 (GMT -0500)
Chippewa Valley Regional

Weather History for KEAU - November, 2014

Change the Weather History Date:

Tuesday, November 25, 2014

  Actual Average Record
Temperature  
Mean Temperature 19 °F 28 °F  
Max Temperature 23 °F 36 °F 55 °F (1960)
Min Temperature 15 °F 20 °F -11 °F (1898)
Degree Days  
Heating Degree Days 46 37  
Month to date heating degree days 962 766  
Since 1 July heating degree days 1738 1550  
Cooling Degree Days 0 0  
Month to date cooling degree days 0 0  
Year to date cooling degree days 500 579  
Moisture  
Dew Point 12 °F    
Average Humidity 74    
Maximum Humidity 80    
Minimum Humidity 67    
Precipitation  
Precipitation T in 0.06 in 0.55 in (1906)
Month to date precipitation 1.66 1.57  
Year to date precipitation 42.22 29.71  
Snow  
Snow T in 0.30 in 5.10 in (1993)
Month to date snowfall 12.0 4.5  
Since 1 July snowfall 12.6 4.9  
Since 1 September snowfall 12.6 4.9  
Snow Depth T in    
Sea Level Pressure  
Sea Level Pressure 30.04 in    
Wind  
Wind Speed 7 mph (WSW)    
Max Wind Speed 16 mph    
Max Gust Speed 21 mph    
Visibility 10 miles    
Events Snow    
T = Trace of Precipitation, MM = Missing Value Source: NWS Daily Summary

Daily Weather History Graph

Daily Weather History Graph

Search for Another Location

Airport or City:

Trip Planner

Search our weather history database for the weather conditions in past years. The results will help you decide how hot, cold, wet, or windy it might be!

Date:

Astronomy

Nov. 25, 2014 Rise Set
Actual Time 7:16 AM CST 4:29 PM CST
Civil Twilight 6:43 AM CST 5:01 PM CST
Nautical Twilight 6:07 AM CST 5:38 PM CST
Astronomical Twilight 5:32 AM CST 6:13 PM CST
Moon 10:00 AM CST (11/25) 7:56 PM CST (11/25)
Length of Visible Light 10h 18m
Length of Day
9h 12m
Waxing Crescent, 13% of the Moon is Illuminated
Nov 25
Waxing Crescent
Nov 29
First Quarter
Dec 6
Full
Dec 14
Last Quarter
Dec 21
New

Hourly Weather History & Observations

Time (CST) Temp. Windchill Dew Point Humidity Pressure Visibility Wind Dir Wind Speed Gust Speed Precip Events Conditions
12:27 AM 19.9 °F 8.6 °F 12.0 °F 71% 29.83 in 10.0 mi NW 10.4 mph - N/A   Overcast
12:56 AM 19.9 °F 6.7 °F 12.0 °F 71% 29.89 in 10.0 mi NW 13.8 mph - N/A   Overcast
1:13 AM 19.9 °F 6.7 °F 10.9 °F 68% 29.85 in 10.0 mi NW 13.8 mph 20.7 mph N/A   Overcast
1:28 AM 19.9 °F 7.9 °F 10.9 °F 68% 29.86 in 10.0 mi NNW 11.5 mph - N/A   Overcast
1:56 AM 19.9 °F 7.9 °F 10.9 °F 68% 29.93 in 10.0 mi NW 11.5 mph - N/A   Overcast
2:56 AM 19.0 °F 7.5 °F 12.0 °F 74% 29.96 in 10.0 mi WNW 10.4 mph - N/A   Overcast
3:56 AM 18.0 °F 5.4 °F 10.9 °F 74% 29.97 in 10.0 mi WNW 11.5 mph - 0.00 in   Overcast
4:56 AM 17.1 °F 5.0 °F 9.0 °F 71% 30.01 in 10.0 mi NNW 10.4 mph - 0.00 in Snow Light Snow
5:56 AM 17.1 °F 7.6 °F 10.0 °F 74% 30.02 in 9.0 mi WNW 6.9 mph - 0.00 in Snow Light Snow
6:56 AM 16.0 °F 7.4 °F 9.0 °F 74% 30.04 in 10.0 mi WNW 5.8 mph - 0.00 in   Overcast
7:56 AM 16.0 °F 5.3 °F 9.0 °F 74% 30.05 in 10.0 mi West 8.1 mph - 0.00 in   Overcast
8:56 AM 16.0 °F 7.4 °F 9.0 °F 74% 30.06 in 9.0 mi NW 5.8 mph - 0.00 in   Overcast
9:56 AM 16.0 °F 5.3 °F 9.0 °F 74% 30.09 in 10.0 mi West 8.1 mph - 0.00 in   Overcast
10:56 AM 17.1 °F 7.6 °F 10.0 °F 74% 30.11 in 10.0 mi SW 6.9 mph - N/A   Overcast
11:35 AM 17.1 °F 8.7 °F 10.9 °F 77% 30.06 in 10.0 mi SW 5.8 mph - N/A   Overcast
11:56 AM 16.0 °F 6.3 °F 10.0 °F 77% 30.11 in 10.0 mi West 6.9 mph - N/A   Scattered Clouds
12:56 PM 18.0 °F 9.8 °F 10.9 °F 74% 30.10 in 10.0 mi SW 5.8 mph - N/A   Clear
1:56 PM 19.9 °F 12.1 °F 10.9 °F 68% 30.10 in 10.0 mi SW 5.8 mph - N/A   Mostly Cloudy
2:56 PM 21.0 °F 14.6 °F 12.0 °F 68% 30.10 in 10.0 mi SW 4.6 mph - N/A   Overcast
3:56 PM 21.0 °F 14.6 °F 12.9 °F 71% 30.11 in 10.0 mi SSW 4.6 mph - N/A   Overcast
4:56 PM 21.9 °F - 12.9 °F 68% 30.10 in 10.0 mi Calm Calm - N/A   Overcast
5:56 PM 21.9 °F 15.7 °F 14.0 °F 72% 30.10 in 10.0 mi South 4.6 mph - N/A   Overcast
6:56 PM 21.9 °F 15.7 °F 14.0 °F 72% 30.11 in 10.0 mi South 4.6 mph - N/A   Overcast
7:56 PM 21.9 °F 12.5 °F 14.0 °F 72% 30.10 in 10.0 mi SSE 8.1 mph - N/A   Overcast
8:56 PM 21.9 °F 13.4 °F 15.1 °F 75% 30.11 in 10.0 mi South 6.9 mph - N/A   Overcast
9:56 PM 23.0 °F 17.0 °F 14.0 °F 68% 30.11 in 10.0 mi SSE 4.6 mph - N/A   Overcast
10:56 PM 23.0 °F - 15.1 °F 72% 30.12 in 10.0 mi Calm Calm - N/A   Overcast
11:56 PM 21.9 °F 17.2 °F 15.1 °F 75% 30.14 in 10.0 mi SE 3.5 mph - N/A   Overcast